Wind_Speed
51 50 47 46 45 43 42 38 39 42 40 40 40 39 38 35 35 35 36 36 38 39 39 39 38 38 39 39 39 39 39 40 40 39 40 43 44 38
51 50 48 47 47 45 44 42 45 43 42 43 42 42 41 41 39 39 39 39 40 40 43 44 45 44 44 45 44 45 44 43 43 42 43 44 46 38
52 51 48 48 48 47 46 45 48 46 44 43 44 43 43 43 44 44 44 42 42 42 45 47 47 47 47 48 48 47 47 45 45 43 45 47 48 39
52 51 48 49 48 48 48 46 44 48 50 47 46 46 46 45 46 46 46 45 46 47 49 49 50 52 49 49 50 51 50 48 45 45 47 49 48 42
54 51 49 51 51 48 50 49 49 51 56 53 51 48 48 48 47 48 47 48 48 50 53 51 52 53 50 51 53 54 53 51 47 48 51 57 51 45
50 51 53 52 51 53 54 56 57 55 58 58 54 53 53 52 52 53 54 55 58 59 56 54 54 54 55 55 51 57 57 58 56 61 61 55 50 46
62 62 64 66 67 63 63 63 61 60 60 61 59 58 58 57 56 55 58 60 60 58 54 56 60 59 59 57 54 56 58 61 62 60 53 50 51 47
61 63 61 62 65 68 67 63 66 67 63 60 58 62 63 62 59 57 58 59 60 57 60 56 57 55 56 57 60 58 59 60 58 52 50 51 50 50
66 58 55 58 59 54 55 57 61 60 59 59 62 64 64 62 64 63 61 64 67 67 66 64 60 61 59 57 58 61 61 57 53 54 55 55 55 55
49 52 54 56 58 60 62 61 61 61 61 63 62 60 63 67 58 59 63 63 61 61 65 66 60 59 61 64 66 65 61 58 55 56 59 59 60 57
56 59 67 64 62 65 67 65 59 57 61 63 63 62 60 59 63 63 61 62 64 63 64 64 57 58 63 66 62 59 56 59 58 60 62 63 62 60
48 48 52 54 53 58 64 65 64 67 71 69 70 67 63 66 69 70 68 64 64 65 68 68 69 62 64 67 65 65 63 63 61 61 61 62 63 61
43 52 58 62 62 62 62 64 62 63 69 72 70 68 67 70 69 67 66 69 70 70 74 72 70 63 65 64 63 64 64 61 62 66 68 67 66 62
37 39 37 37 40 45 47 49 52 51 50 51 48 57 62 63 59 57 60 61 58 59 58 52 52 53 54 55 49 50 51 50 53 55 55 57 59 61
37 36 34 35 36 37 38 41 44 47 47 47 45 42 45 47 46 46 49 51 50 50 50 51 53 55 55 54 50 50 53 53 54 55 54 55 55 56
40 40 37 38 37 38 39 39 41 43 41 45 47 49 48 50 46 43 44 51 51 51 49 52 53 51 53 54 55 52 52 53 54 51 53 55 53 51
43 44 45 46 45 44 43 41 41 41 41 43 44 46 48 51 50 50 47 53 54 52 50 50 52 53 54 53 53 55 58 59 61 61 57 53 55 55
45 45 45 45 46 46 46 46 45 43 43 43 44 48 50 47 49 51 55 56 55 55 53 54 57 58 56 54 56 58 58 57 57 56 55 55 56 56
49 50 50 49 48 49 49 48 48 48 46 45 45 46 47 48 50 52 54 56 60 61 61 57 58 57 56 56 57 56 55 54 55 55 57 56 55 55
51 52 53 51 50 49 49 50 49 49 49 47 46 47 51 55 60 61 61 62 64 63 61 59 58 57 56 56 56 56 55 56 56 56 55 55 54 55
52 51 51 51 51 51 50 50 51 50 49 49 47 48 50 53 55 58 60 61 61 60 59 58 57 56 55 54 53 53 54 54 55 55 56 57 57 56
51 50 50 50 51 51 51 50 49 48 47 47 48 48 48 48 50 52 54 54 54 54 53 52 52 52 53 53 54 55 56 56 56 57 56 55 54 51
48 48 47 47 47 48 48 48 47 46 47 47 48 49 49 50 50 52 54 55 55 55 56 55 56 57 57 56 56 56 57 57 56 54 50 51 51 53
Wind_Direction
225 228 230 233 236 238 241 242 252 255 257 258 260 264 266 266 268 269 270 271 271 272 274 276 279 281 284 287 290 292 295 299 303 305 311 316 322 319
226 230 231 234 238 240 241 243 246 260 259 260 261 264 268 269 270 270 271 273 275 276 275 276 277 280 282 286 289 291 293 294 296 300 307 311 315 312
227 231 233 237 239 242 244 244 244 252 262 264 268 268 269 270 271 271 271 272 273 274 277 279 280 282 283 285 287 288 290 291 292 297 303 305 310 307
228 232 235 240 243 244 246 247 250 253 260 265 267 271 272 272 273 274 275 275 275 275 274 275 282 283 286 288 289 288 287 289 292 293 297 301 305 301
229 233 236 240 242 245 247 250 257 257 256 262 266 268 270 272 274 277 277 275 277 279 279 277 279 280 282 285 285 286 290 291 289 287 297 298 296 296
233 235 238 241 244 246 247 252 251 256 260 262 264 267 271 270 271 273 274 272 271 272 280 278 280 280 280 283 282 284 287 289 285 288 290 291 291 292
233 236 239 242 244 244 248 255 257 257 258 262 266 272 274 273 272 270 271 272 275 277 276 279 279 282 283 283 282 282 284 284 287 289 289 286 289 289
242 244 248 254 255 255 252 254 258 261 262 264 265 270 271 271 272 272 271 272 272 275 277 277 281 282 282 283 282 281 284 285 283 281 281 284 285 289
250 246 252 255 256 256 257 263 266 268 267 269 268 269 269 270 269 268 272 273 274 276 278 277 278 284 282 281 282 285 287 281 280 281 280 280 282 285
238 242 237 255 255 259 256 261 265 262 265 266 270 268 273 270 270 275 274 277 276 278 279 278 281 280 278 282 282 282 280 277 273 273 275 278 280 281
241 243 243 247 254 253 256 262 261 257 261 266 269 266 275 272 271 274 280 275 273 274 278 276 282 284 280 280 275 270 267 270 270 272 274 275 279 277
243 247 248 246 253 258 259 260 259 260 260 264 268 268 271 272 276 277 276 275 274 273 278 278 276 280 279 279 273 271 272 271 271 271 273 275 276 277
261 263 260 257 259 259 262 260 260 263 261 260 264 266 267 268 271 273 272 269 272 279 276 276 278 282 279 276 276 275 275 278 279 278 279 279 277 275
261 261 262 267 270 272 272 274 274 273 271 270 267 273 275 276 277 275 276 274 278 278 278 277 279 277 279 277 271 273 277 277 278 276 277 276 274 276
267 268 266 266 268 269 268 267 267 266 267 267 267 264 269 272 272 273 276 276 275 273 275 273 270 266 265 269 277 276 278 279 278 277 279 281 281 283
265 267 268 269 269 268 268 268 266 264 262 258 263 270 266 268 272 277 272 264 264 268 270 272 270 270 273 276 281 285 283 282 281 283 285 287 283 282
262 264 265 265 266 268 269 270 270 270 269 269 266 262 266 272 271 270 269 264 268 273 275 279 284 286 286 287 283 281 282 281 283 287 289 285 284 285
264 265 268 269 269 269 270 270 270 270 270 270 268 267 269 268 265 268 271 270 268 272 283 286 286 286 285 283 282 281 282 283 284 285 285 284 284 284
266 266 266 267 268 269 270 269 270 269 267 267 268 269 264 263 263 266 267 270 274 279 283 285 284 282 282 281 281 282 284 284 283 285 285 286 285 284
265 265 266 267 267 268 270 271 271 269 269 267 265 263 261 262 264 270 269 272 275 279 280 279 279 280 280 282 284 285 285 284 285 285 284 284 283 283
264 264 265 266 266 267 267 268 269 270 270 270 268 267 267 266 267 268 270 273 274 276 277 278 279 280 281 281 282 282 282 282 282 283 283 283 284 285
264 265 266 267 268 268 268 268 268 269 268 270 272 272 272 272 272 273 274 275 275 276 276 277 277 278 279 280 279 279 280 280 280 282 283 283 283 283
263 264 264 265 266 267 268 268 268 268 269 269 270 272 273 273 272 273 274 275 276 276 276 276 277 278 279 280 280 280 281 282 283 283 282 280 280 282
Height
5777 5784 5789 5794 5799 5803 5807 5809 5814 5818 5820 5820 5821 5824 5826 5828 5830 5830 5831 5832 5831 5831 5831 5829 5829 5827 5825 5824 5822 5820 5818 5815 5813 5809 5806 5803 5801 5798
5769 5775 5780 5785 5790 5794 5797 5800 5805 5810 5812 5812 5814 5815 5818 5819 5821 5822 5822 5823 5823 5822 5822 5820 5819 5819 5817 5815 5814 5811 5809 5806 5804 5801 5798 5795 5793 5791
5760 5767 5771 5775 5781 5785 5789 5792 5796 5800 5803 5804 5806 5808 5809 5810 5812 5813 5814 5813 5812 5812 5812 5810 5810 5810 5808 5806 5804 5801 5800 5797 5795 5793 5790 5787 5784 5782
5751 5757 5762 5767 5772 5775 5779 5783 5786 5789 5793 5794 5796 5798 5800 5801 5802 5802 5804 5804 5802 5801 5800 5799 5799 5799 5798 5796 5794 5792 5789 5787 5785 5783 5780 5778 5774 5772
5740 5746 5751 5757 5762 5765 5770 5773 5775 5776 5780 5783 5784 5787 5789 5789 5789 5791 5792 5791 5790 5789 5789 5788 5787 5786 5785 5784 5782 5781 5779 5778 5775 5772 5770 5768 5764 5762
5731 5736 5741 5745 5749 5753 5756 5759 5762 5765 5768 5770 5773 5775 5776 5777 5778 5779 5778 5779 5777 5778 5779 5777 5775 5774 5773 5772 5770 5767 5766 5765 5764 5761 5758 5755 5753 5751
5719 5724 5728 5732 5735 5738 5742 5747 5750 5753 5756 5759 5761 5764 5766 5767 5767 5766 5766 5765 5765 5765 5765 5764 5763 5762 5761 5758 5756 5753 5752 5751 5749 5747 5745 5743 5742 5740
5709 5713 5718 5721 5724 5727 5731 5734 5736 5739 5742 5744 5746 5750 5752 5753 5753 5753 5752 5751 5751 5752 5750 5751 5750 5748 5746 5743 5742 5740 5738 5737 5735 5733 5731 5731 5730 5728
5698 5703 5706 5709 5712 5716 5718 5721 5723 5725 5727 5730 5733 5736 5736 5736 5736 5738 5738 5739 5737 5738 5739 5737 5735 5733 5731 5729 5727 5725 5724 5723 5721 5720 5719 5716 5715 5713
5686 5691 5695 5697 5700 5703 5705 5707 5709 5711 5713 5715 5718 5720 5720 5720 5721 5722 5722 5722 5723 5723 5723 5721 5719 5719 5716 5715 5713 5710 5708 5707 5706 5705 5703 5702 5700 5698
5675 5678 5681 5684 5687 5690 5692 5694 5695 5698 5700 5702 5704 5704 5705 5706 5706 5706 5707 5706 5707 5708 5707 5706 5705 5702 5700 5699 5697 5695 5692 5691 5691 5689 5687 5685 5684 5681
5663 5664 5668 5670 5673 5676 5677 5679 5682 5683 5685 5686 5688 5690 5691 5691 5691 5691 5690 5690 5689 5689 5690 5689 5687 5686 5685 5684 5682 5680 5679 5677 5675 5673 5671 5669 5667 5666
5651 5653 5656 5659 5660 5661 5663 5666 5668 5669 5669 5670 5671 5673 5673 5674 5674 5673 5672 5672 5672 5672 5672 5671 5670 5668 5666 5666 5665 5662 5662 5660 5660 5657 5655 5652 5649 5647
5640 5643 5643 5643 5645 5648 5649 5650 5651 5652 5652 5654 5655 5655 5655 5656 5656 5655 5655 5655 5656 5655 5654 5654 5653 5651 5650 5650 5648 5647 5645 5644 5642 5640 5636 5634 5632 5630
5627 5629 5631 5633 5634 5634 5634 5636 5638 5639 5638 5639 5640 5640 5640 5640 5641 5641 5640 5639 5640 5639 5639 5638 5637 5636 5635 5634 5633 5631 5629 5627 5626 5623 5620 5618 5615 5613
5616 5618 5619 5621 5623 5623 5624 5626 5626 5626 5626 5627 5627 5628 5628 5627 5627 5627 5627 5626 5625 5625 5624 5624 5622 5621 5619 5618 5617 5615 5613 5612 5609 5607 5605 5604 5601 5599
5606 5607 5608 5610 5612 5611 5611 5612 5612 5612 5612 5613 5613 5613 5613 5614 5614 5613 5615 5615 5613 5611 5609 5608 5606 5605 5604 5603 5601 5598 5596 5594 5593 5592 5591 5590 5587 5584
5593 5594 5595 5595 5596 5597 5598 5598 5599 5600 5600 5599 5599 5599 5600 5600 5599 5600 5600 5600 5600 5598 5596 5595 5592 5590 5588 5587 5584 5582 5580 5578 5577 5575 5573 5572 5570 5566
5577 5579 5581 5582 5583 5583 5584 5584 5585 5586 5586 5586 5585 5585 5585 5586 5585 5586 5585 5585 5584 5582 5581 5578 5576 5574 5573 5571 5569 5566 5565 5563 5559 5557 5555 5555 5551 5549
5564 5565 5566 5568 5568 5568 5569 5569 5569 5570 5571 5571 5571 5571 5571 5572 5571 5570 5569 5568 5567 5565 5564 5561 5559 5557 5555 5555 5553 5550 5547 5544 5543 5541 5539 5537 5535 5533
5551 5551 5552 5553 5553 5554 5554 5554 5554 5554 5554 5554 5555 5555 5555 5555 5554 5553 5552 5551 5550 5548 5546 5544 5542 5540 5539 5538 5537 5533 5530 5529 5527 5525 5523 5521 5518 5516
5537 5537 5538 5538 5538 5539 5539 5539 5539 5539 5539 5539 5538 5538 5538 5538 5537 5537 5535 5534 5533 5532 5530 5528 5526 5524 5523 5521 5520 5517 5514 5512 5510 5509 5507 5503 5501 5500
5522 5523 5523 5523 5523 5524 5524 5525 5525 5525 5525 5525 5525 5524 5524 5523 5522 5521 5520 5519 5518 5517 5514 5512 5510 5508 5506 5504 5503 5500 5498 5495 5493 5492 5490 5486 5485 5483